Regional Weather Roundup
Issued by NWS Pendleton, OR

Home | Current Version | Previous Version | Text Only | Print | Product List | Glossary On
Versions: 1 2 3 4 5 6 7 8 9 10 11 12 13 14 15 16 17 18 19 20 21 22 23 24 25 26 27 28 29 30 31 32 33 34 35 36 37 38 39 40 41 42 43 44 45 46 47 48 49 50
000
ASUS46 KPDT 210910
RWRPDT
PENDLETON REGIONAL WEATHER ROUNDUP
NATIONAL WEATHER SERVICE PENDLETON OREGON
100 AM PST SUN DEC 21 2014

NOTE: FAIR INDICATES FEW OR NO CLOUDS BELOW 12,000 FEET WITH NO
SIGNIFICANT WEATHER AND/OR OBSTRUCTIONS TO VISIBILITY.

# INDICATES UNOFFICIAL STATION AND DATA

WAZ520-211010-
EAST SLOPES OF WASHINGTON CASCADES

CITY            SKY/WX      TMP DP  RH  WIND    PRES   REMARKS
#BULLFROG 2SW   N/A         44  45  100 S2      27.15R
#BUMPING DAM    N/A         33  N/A N/A W1      N/A
#CLE ELUM HS    N/A         44  44  100 SW5     29.49S
#CLE ELUM 2NW   N/A         44  43  96  S3      N/A
#CLE ELUM LAKE  N/A         42  41  96  W2      29.56R
#CLIFFDEL 2NW   N/A         33  33  100 SW2     N/A
#EASTON DOT     N/A         43  43  100 N5G25   N/A
#GLENWOOD       N/A         51  48  89  SW5     29.66R
#MANASTASH CYN  N/A         36  34  92  CALM    29.52R
#NELSON         N/A         39  38  96  CALM    29.55R
#NELSON 3SW     N/A         42  41  96  CALM    29.74F
#NILE           N/A         35  35  100 S1      28.83R
#PEOH POINT     N/A         37  37  100 S9      N/A
#RONALD 2NW     N/A         42  41  96  NW3     29.40R
#SNOWDEN        N/A         50  49  96  NW3     N/A
#TEANAWAY 4NE   N/A         37  37  100 W1      N/A
#TROUT LAKE HS  N/A         53  45  74  W6G26   N/A
#TROUT LAKE 1NE N/A         51  47  86  W12G30  29.67R
$$

WAZ521-211010-
SIMCOE HIGHLANDS

CITY            SKY/WX      TMP DP  RH  WIND    PRES   REMARKS
#BICKLETON HS   N/A         49  49  100 W21G30  34.25S WCI 42
#SATUS PASS DOT N/A         47  45  93  CALM    N/A
#CENTERVILLE 4W N/A         52  50  93  W15     29.39R
#CENTERVILLE 1SWN/A         52  49  89  W14     29.55R
#GOLDENDALE     N/A         52  51  96  SW15    N/A
#GOLDENDALE 1NE N/A         52  52  100 SW7     N/A
#GOLDENDALE 1S  N/A         51  50  96  W16G25  29.58R
#GOLDENDALE 5WNWN/A         52  50  93  W21     29.60R
#GOODNOE HILLS  N/A         50  48  93  W15     N/A
#LYLE 6NE       N/A         49  49  100 SW8     29.59R
$$

WAZ026-211010-
KITTITAS VALLEY

CITY            SKY/WX      TMP DP  RH  WIND    PRES   REMARKS
ELLENSBURG AP   FOG         39  36  89  CALM    29.50R VSB 1/4
#ELLENSBURG CWU N/A         38  37  96  CALM    29.49R
#ELLENSBURG 3NE N/A         38  37  96  CALM    29.54R
#ELLENSBURG     N/A         41  41  100 CALM    N/A
#ELLENSBURG 1E  N/A         37  36  96  CALM    N/A
#KITTITAS 4N    N/A         40  37  89  CALM    29.57R
#KITTITAS 3S    N/A         38  37  96  CALM    29.53R
#THORP 6N       N/A         43  43  100 NW12    29.55F WCI 37
$$

WAZ027-211010-
YAKIMA VALLEY

CITY            SKY/WX      TMP DP  RH  WIND    PRES   REMARKS
YAKIMA AIRPORT  MOCLDY      42  39  89  SW8     29.54R
YAKIMA-VAGABOND LGT RAIN SH 41  40  96  E2      29.55R
#DONALD 2NE     N/A         47  45  93  SW2     28.39R
#GRANDVIEW      N/A         56  49  77  SW3     29.54S
#MABTON         N/A         59  52  78  S13G26  29.51S
#MOXEE 2E       N/A         36  34  92  CALM    29.96S
#NACHES 2SW     N/A         40  39  96  CALM    29.49R
#TERRACE HTS    N/A         41  40  96  CALM    29.53R
#WAPATO 4NE     N/A         47  45  93  SW2     28.39R
#WEST VALLEY    N/A         42  40  93  S1      29.54R
#W YAKIMA       N/A         41  39  93  NW2     29.56R
#WHITE SWAN 5E  N/A         40  39  96  NW3     29.55R
#WILEY CITY 3W  N/A         37  34  89  CALM    29.50F
$$

WAZ028-211010-
LOWER COLUMBIA BASIN...WASHINGTON

CITY            SKY/WX      TMP DP  RH  WIND    PRES   REMARKS
PASCO           MOCLDY      57  50  77  SW24G31 29.52F
PROSSER AWOS    N/A         57  52  83  S20     29.55F
RICHLAND AWOS   LGT RAIN    55  50  83  SW22G30 29.50F
#BASIN CITY 5SW N/A         54  51  90  SW7     29.51R
#BENTON CITY    N/A         54  50  86  SW29G40 29.41F
#CONNELL 5N     N/A         51  49  93  SW18G31 29.49S
#CONNELL 5NW    N/A         52  49  89  SW22G31 29.45S
#ELTOPIA        N/A         54  51  90  S10     29.48S
#ELTOPIA 6NW    N/A         54  51  90  S22G40  28.48R
#KAHLOTUS       N/A         51  48  89  W37G46  29.49F
#KENNEWICK      N/A         44  45  100 S2      27.15R
#KENNEWICK 3S   N/A         54  50  86  SW9G24  29.52S
#PASCO-BROADMOORN/A         55  49  80  SW13    29.41F
#PATERSON       N/A         51  49  93  NW2     29.56R
#PROSSER DOT    N/A         55  50  83  W2      N/A
#PROSSER        N/A         52  48  86  S15G25  29.52F
#SAGEMOOR 2W    N/A         53  50  89  SW12    29.38R
#TOUCHET 2S     N/A         59  50  72  SW17G25 29.52S
#WEST PASCO     N/A         56  50  80  SW12    29.49S
$$

WAZ029-211010-
FOOTHILLS OF THE BLUES...WASHINGTON

CITY            SKY/WX      TMP DP  RH  WIND    PRES   REMARKS
WALLA WALLA AP  CLOUDY      57  46  67  S21     29.54F
#COLLEGE PLACE  N/A         57  45  64  S15G24  29.55F
#DAYTON SCHOOL  N/A         56  44  64  S20G40  29.56F
#DELANEY DOT    N/A         57  46  67  S17G24  N/A
#LOWDEN 2SE     N/A         59  50  72  SW13    29.49S
#PLEASANT VIEW 1N/A         49  48  96  S18G31  29.57R WCI 43
#PRESCOTT       N/A         55  50  83  SW7     29.53R
#SUDBURY        N/A         59  N/A N/A CALM    N/A
#WHITMAN COLLEGEN/A         58  47  67  S12G28  29.58F
#WAITSBURG 5S   N/A         52  48  86  S22G30  29.62F
#WALLA WALLA 5E N/A         56  48  74  SW25G35 N/A
#WALLA WALLA U  N/A         60  49  67  S9      29.53F
#WHITMAN MISSIONN/A         59  49  69  S12G26  29.55S
$$

WAZ030-211010-
BLUE MOUNTAINS...WASHINGTON

CITY            SKY/WX      TMP DP  RH  WIND    PRES   REMARKS
#DIXIE 5SE      N/A         51  43  74  S32G41  29.48F
#SKI BLUEWOOD   N/A         41  39  93  NE5     29.65F
$$

ORZ009-041-WAZ024-211010-
COLUMBIA RIVER GORGE

CITY            SKY/WX      TMP DP  RH  WIND    PRES   REMARKS
HOOD RIVER AP   LGT RAIN    57  52  83  SW3     29.60R
THE DALLES AP   CLOUDY      43  42  96  N5      29.61R FOG
#ARLINGTON AIRPON/A         49  48  96  W15     30.00S WCI 43
#CELILO DOT     N/A         44  42  93  S1      N/A
#LYLE           N/A         44  43  96  NE1     29.62R
#MARYHILL       N/A         44  N/A N/A E9      N/A
#MARYHILL 2W    N/A         49  49  100 SE6     N/A
#MOSIER 1S      N/A         48  47  96  W6      29.65R
#MURDOCK        N/A         45  45  100 NW3     29.65R
#RUFUS DOT      N/A         44  42  93  CALM    N/A

$$

ORZ510-211010-
NORTH CENTRAL OREGON

CITY            SKY/WX      TMP DP  RH  WIND    PRES   REMARKS
#CHENOWITH 1W   N/A         50  50  100 W7      N/A
#COW CYN RST AREN/A         49  47  93  S17G26  N/A    WCI 43
#DUFUR 9E       N/A         51  49  93  S26G39  29.67R
#GRASS VALLEY   N/A         51  49  93  SW8     N/A
#GRASS VALLEY 1SN/A         51  49  93  SW22G33 29.65S
#KENT DOT       N/A         51  43  74  SW26    N/A
#MAUPIN SCHOOL  N/A         58  51  77  W7      29.68R
#MORO SCHOOL    N/A         54  52  93  SW12G28 29.64R
#SHANIKO 4NW    N/A         46  46  100 SW6     29.67F
#TYGH VALLEY 2NEN/A         55  51  86  SW2     29.66R
#WAPANITIA AIRPON/A         54  50  86  SW9     29.69R
#WASCO DOT      N/A         55  49  80  SW15    N/A
#WASCO 5NE      N/A         54  51  90  SW9     29.60R
$$

ORZ511-211010-
CENTRAL OREGON

CITY            SKY/WX      TMP DP  RH  WIND    PRES   REMARKS
BEND AIRPORT    CLOUDY      48  45  89  SW18G28 29.80F WCI 41
MADRAS AIRPORT  LGT RAIN    52  46  80  S18G24  29.75F
PRINEVILLE AP   MOCLDY      50  46  86  SW12    29.81F
REDMOND AIRPORT LGT RAIN    48  45  89  S10     29.78F
#BEND 1SW       N/A         45  44  96  NW1     N/A
#BEND-AWBREY    N/A         46  45  96  S7      29.84F
#BEND-KIM LN    N/A         46  45  96  SW7     29.78F
#CROOKED RVR RANN/A         49  46  89  CALM    29.78S
#CULVER         N/A         52  46  80  S9      29.72F
#LAKE BILLY CHINN/A         53  40  61  S12     29.84F
#POWELL BUTTE 3EN/A         51  45  80  SW15    N/A
#POWELL BUTTE   N/A         50  44  80  W9      29.45F
#PRINEVILLE 3N  N/A         47  45  93  N2      29.77S
#WARM SPRINGS   N/A         54  50  86  E1      29.69F


ORZ509-211010-
EAST SLOPES OF OREGON CASCADES

CITY            SKY/WX      TMP DP  RH  WIND    PRES   REMARKS
#BLUE BOX PASS  N/A         45  -6  11  W7G24   N/A
#BLACK BUTTE RNCN/A         48  48  100 S1      29.80S
#CAMP SHERMAN   N/A         49  47  93  E1      29.75F
#LA PINE DOT    N/A         44  42  93  S5      N/A
#LA PINE 4NW    N/A         43  41  93  CALM    29.97S
#LAVA BUTTE DOT N/A         44  42  93  SW6     N/A
#MT BACHELOR-MIDN/A         35  34  96  E33G52  N/A    WCI 21
#SISTERS AIRPOR N/A         52  52  100 N16G29  30.17S
#SISTERS ODOT   N/A         53  N/A N/A W8      N/A
#SISTERS 3N     N/A         48  47  96  S3      29.84S
#SUNRIVER       N/A         44  44  100 SW3     29.74F
#TUMALO 3W      N/A         46  44  93  SE6     29.67F
#WANOGA BUTTE D N/A         40  40  100 W20G31  N/A    WCI 30

$$

ORZ044-211010-
LOWER COLUMBIA BASIN...OREGON

CITY            SKY/WX      TMP DP  RH  WIND    PRES   REMARKS
HERMISTON       CLOUDY      60  48  64  SW20G33 29.56R
#BOARDMAN 3W    N/A         45  44  96  S3      29.29R
#BOARDMAN 8SW   N/A         55  51  86  W3      29.58R
#ECHO 8SW       N/A         60  49  67  SW17    29.53S
#IONE SCHOOL    N/A         60  46  60  SW16G30 29.59R
#IRRIGON 4NW    N/A         44  44  100 E2      N/A
#UMATILLA SCHOOLN/A         44  44  100 CALM    29.58F
#UMATILLA       N/A         48  44  86  CALM    29.54F
$$

ORZ507-211010-
NORTHERN FOOTHILLS OF THE BLUES

CITY            SKY/WX      TMP DP  RH  WIND    PRES   REMARKS
PENDLETON AIRPT PTCLDY      59  45  60  SW29G38 29.57F
#ADAMS 3WNW     N/A         53  46  77  SW15G26 29.58F
#ATHENA         N/A         54  47  77  SW6     29.60F
#CAYUSE         N/A         58  46  64  SW24G39 29.56F
#HELIX SCHOOL   N/A         55  48  77  SW21G32 29.60F
#HELIX 3N       N/A         53  47  80  SW20G26 29.58R
#HOLDMAN 5SE    N/A         58  49  72  SW15G26 29.59S
#HOLDMAN 6E     N/A         56  48  74  N22G31  29.39F
#M-F GROVE ELEM N/A         57  45  64  S9      29.55F
#M-FREEWATER 5SEN/A         59  47  64  SW18G28 29.59S
#PENDLETON DNTN N/A         60  43  53  W8      28.40R
#PDT AQUATIC CTRN/A         62  47  58  SW24G37 29.55F
#PENDLETON 5NE  N/A         56  47  72  SW14G26 29.56S
#PENDLETON 7NW  N/A         58  48  69  SW16G28 N/A
#PILOT ROCK     N/A         57  41  55  S22G33  29.62S
#TUTUILLA       N/A         56  46  69  S18G28  29.59S
#UMAPINE 2E     N/A         58  49  72  SW8     29.52R
#WESTON SCHOOL  N/A         55  43  64  W15G26  29.58F

$$

ORZ508-211010-
SOUTHERN FOOTHILLS OF THE BLUES

CITY            SKY/WX      TMP DP  RH  WIND    PRES   REMARKS
LEXINGTON       CLOUDY      59  46  62  SW26G40 29.61R
#AJAX           N/A         55  43  64  S38G60  29.56F
#CONDON SCHOOL  N/A         52  48  86  CALM    29.65S
#CONDON 5W      N/A         51  46  83  SW21G32 29.63F
#FOSSIL SCHOOL  N/A         53  46  77  SW13G24 29.68F
#HEPPNER EOC    N/A         57  45  64  N22G43  29.57F
#HEPPNER 4NE    N/A         54  46  74  SW17G35 29.62S
#LEXINGTON 2SE  N/A         61  48  62  SW20G29 29.58R
#MIKKALO        N/A         57  47  69  W24G43  29.60R
#OLEX 4N        N/A         58  51  77  SW22G35 29.58R
#RUGGS 5NE      N/A         54  44  69  SW30G37 29.75F
#RUGGS 2SW      N/A         55  45  69  W26G43  29.63F

$$

ORZ502-503-211010-
BLUE MOUNTAINS

CITY            SKY/WX      TMP DP  RH  WIND    PRES   REMARKS
MEACHAM         CLOUDY      46  42  86  VRB3    29.63S
#BATTLE MTN DOT N/A         40  39  96  S7      N/A
#HARDMAN 10S    N/A         42  41  96  S9      29.86F
#HEPPNER 15SE   N/A         47  43  86  S7      29.57S
#LADD CYN SMT   N/A         38  34  85  E22G30  N/A    WCI 27
#LADD CREEK ODOTN/A         40  38  92  SW8     N/A
#LONG CREEK HS  N/A         46  44  93  SW21G35 29.69F WCI 38
#N POWDER DOT   N/A         39  37  92  SE14    N/A    WCI 31
#PIKES PEAK     N/A         49  43  80  SW45G62 27.99S WCI 39
#TOLLGATE       N/A         39  39  100 SW10    29.58F
#TROY SCHOOL    N/A         38  37  96  W2      29.52F
#UKIAH          N/A         45  43  93  CALM    29.79F
#WESTON 4E      N/A         51  45  80  SW17G31 29.58F
$$

ORZ505-211010-
JOHN DAY BASIN

CITY            SKY/WX      TMP DP  RH  WIND    PRES   REMARKS
JOHN DAY        LGT RAIN    47  43  86  SW16G24 29.80F WCI 41
#JOHN DAY KJDY  N/A         45  43  93  SW1     29.82R
#DAYVILLE SCHOOLN/A         32  29  89  CALM    30.16S
#MONUMENT HS    N/A         41  39  93  CALM    29.74F
#MT. VERNON 5SE N/A         45  42  89  S7      29.75S
#WINLOCK        N/A         46  45  96  N2      29.81F
$$

ORZ506-211010-
OCHOCO AND JOHN DAY HIGHLANDS

CITY            SKY/WX      TMP DP  RH  WIND    PRES   REMARKS
#BUCK CREEK DOT N/A         47  47  100 SW12    N/A    WCI 42
#HORSE RIDGE DO N/A         48  42  80  SW18G30 N/A    WCI 41
#KEYES SMT DOT  N/A         48  41  77  CALM    N/A
#PRAIRIE CITY   N/A         41  38  89  W5      29.86F
#SENECA         N/A         41  N/A N/A N7      N/A
#SENECA 9NW     N/A         39  39  100 CALM    29.90S
$$

ORZ049-211010-
GRANDE RONDE VALLEY

CITY            SKY/WX      TMP DP  RH  WIND    PRES   REMARKS
LA GRANDE       CLOUDY      45  36  70  S16     29.66F WCI 38
#COVE           N/A         47  41  79  SE5     30.03S
#COVE SCHOOL    N/A         48  42  80  S3      29.69F
#COVE 6NW       N/A         42  38  86  S7      29.77F
#ELGIN 3N       N/A         43  38  82  S6      29.38F
#ELGIN 1E       N/A         45  41  86  S5      N/A
#IMBLER SCHOOL  N/A         43  38  82  S10G26  29.65F
#ISLAND CITY 4N N/A         55  52  90  SW1     29.78R
#LADD CYN DOT   N/A         44  37  76  S18G31  N/A    WCI 36
#UNION 1S       N/A         43  38  82  SW7     29.66F
$$

ORZ050-211010-
WALLOWA COUNTY

CITY            SKY/WX      TMP DP  RH  WIND    PRES   REMARKS
#ENTERPRISE AP  N/A         42  34  73  E9      29.61F
#ENTERPRISE HS  N/A         42  38  86  E5      29.69S
#IMNAHA SCHOOL  N/A         46  39  76  SW15G26 29.68F WCI 40
#IMNAHA 10S     N/A         42  38  86  CALM    29.69F
#JOSEPH 3N      N/A         38  35  89  E12     29.69S WCI 30
#JOSEPH 3W      N/A         42  39  89  SW7     29.52F
#LOSTINE        N/A         49  42  77  SW6     29.49F
#MT HOWARD 8000 N/A         33  N/A N/A W29G47  29.65R WCI 19
#PROMISE 1S     N/A         43  41  93  E10     29.71F
#SHEEP RDG 7000 N/A         35  33  92  CALM    29.62R
#WALLOWA SCHOOL N/A         49  43  80  W2      30.66F



$$



USA.gov is the U.S. government's official web portal to all federal, state and local government web resources and services.